Theta_e
345 346 346 345 344 343 345 346 344 346 349 347 348 349 348 347 346 344 344 345 345 344 348 347 349 346 343 344 342 340 338 338 335 335 341 343 342 341 343 342 339 338 338
344 345 346 346 345 344 343 343 345 345 349 351 350 351 349 349 349 349 345 346 345 344 346 348 347 347 345 340 339 338 339 336 334 331 335 340 342 341 341 340 338 338 336
345 345 346 347 347 347 347 345 345 346 350 349 351 351 351 350 350 347 344 345 349 345 347 348 347 347 347 345 343 342 341 335 329 331 333 336 341 341 340 339 339 337 334
345 345 346 347 348 348 350 351 350 349 347 350 353 350 351 351 351 348 345 344 345 346 348 349 350 350 349 349 347 344 343 339 331 330 331 335 341 341 340 339 339 336 334
348 347 347 347 349 352 354 356 355 354 350 350 353 353 351 350 351 351 349 346 345 344 346 348 349 349 349 349 349 346 344 342 333 331 331 332 335 339 337 337 339 337 333
347 353 351 350 354 356 357 356 357 357 357 355 355 355 355 354 354 354 353 351 349 348 348 348 348 348 348 349 350 347 347 344 339 332 330 330 332 332 333 337 338 336 333
341 354 353 353 356 356 352 353 357 358 358 358 358 356 357 358 358 356 356 354 351 351 348 346 348 351 350 349 348 348 348 347 345 340 332 328 325 327 331 336 338 337 333
354 357 356 356 353 346 339 347 353 355 348 352 351 352 352 352 352 348 350 350 353 348 350 351 354 352 353 353 350 347 348 348 347 345 339 331 327 324 324 325 331 332 333
348 348 344 341 349 346 339 340 337 334 337 345 352 349 348 347 337 336 334 336 337 345 337 347 342 351 354 353 351 352 352 349 347 346 345 335 323 327 329 329 332 334 334
345 347 348 348 347 345 340 336 336 338 338 337 341 336 335 333 336 345 339 342 351 353 350 344 346 354 353 353 353 352 350 350 348 347 345 342 326 322 329 332 332 333 334
331 344 344 340 335 334 334 334 337 344 339 333 329 340 344 342 334 333 331 350 355 353 351 350 353 356 356 354 354 350 348 348 347 347 347 345 338 323 324 323 323 325 332
333 338 340 336 337 339 344 348 348 347 333 331 330 327 326 326 328 329 337 338 340 355 357 355 356 355 350 351 352 350 348 346 344 346 347 345 343 330 325 335 333 326 329
332 331 339 335 336 338 345 347 348 345 340 333 327 326 329 331 335 337 332 330 328 326 329 342 353 355 353 351 352 351 350 350 348 349 347 346 344 334 338 336 331 327 328
337 336 333 336 333 335 331 332 335 340 340 340 336 332 338 340 339 339 335 333 332 331 332 344 344 346 350 354 352 353 350 348 348 346 345 345 343 339 339 334 327 322 327
337 337 335 337 339 333 331 331 332 336 338 340 330 333 339 341 340 339 337 334 334 332 330 329 344 345 345 349 350 350 348 344 343 343 342 341 341 339 335 329 324 324 329
331 335 335 336 335 337 335 337 333 339 339 336 334 334 336 329 327 328 327 328 336 334 332 328 331 341 346 341 344 345 345 343 342 342 341 341 339 335 332 329 324 323 327
325 323 331 335 335 335 334 331 337 336 332 330 329 327 325 325 326 331 330 333 338 334 333 331 325 327 328 345 343 342 343 344 343 340 338 337 335 333 331 328 323 321 323
321 323 323 328 332 333 334 333 335 332 328 326 324 323 324 324 325 325 326 326 335 336 335 333 328 324 326 339 341 341 340 342 341 339 337 336 335 331 330 326 324 319 314
317 319 320 322 323 326 328 329 326 326 324 324 323 321 322 320 325 327 332 331 331 335 335 333 332 323 320 332 335 339 340 339 340 341 339 337 336 332 330 326 324 318 317
318 318 318 319 321 320 322 323 327 324 324 325 324 322 320 323 324 324 329 332 332 335 335 334 331 328 326 324 331 337 336 338 338 337 336 336 335 332 330 326 321 318 318
318 317 320 321 320 319 322 321 321 324 323 322 322 320 321 322 323 323 327 332 333 334 335 335 334 331 329 325 329 333 337 337 338 337 335 335 333 330 329 327 323 322 322
318 320 323 324 324 325 324 322 323 322 322 321 320 321 323 325 324 324 325 325 326 328 329 330 332 333 332 330 328 328 337 337 337 335 334 333 331 328 327 326 324 320 322
321 322 321 322 323 324 324 324 324 323 323 323 322 322 323 324 326 327 326 326 328 327 327 330 331 332 332 330 329 331 333 334 335 334 334 333 331 329 327 326 325 322 319
323 321 320 322 322 321 321 322 322 322 322 322 324 324 324 326 325 325 326 328 328 328 329 329 330 330 331 329 329 333 333 333 333 332 333 331 330 329 326 324 323 322 320
323 323 324 321 319 320 322 322 322 323 323 322 322 321 323 324 324 325 324 324 326 327 327 327 328 329 329 327 328 331 331 332 331 332 331 331 330 328 324 322 321 319 319
323 323 324 324 323 320 320 321 322 322 322 322 321 321 320 319 322 323 323 324 325 325 325 327 327 327 327 324 328 330 329 330 329 330 329 328 328 327 324 321 321 319 317
Wind_Speed
27 23 23 27 30 30 30 31 29 21 22 22 18 17 18 20 24 27 28 26 26 24 25 26 20 20 22 25 21 21 19 18 19 19 20 23 25 23 21 19 19 18 14
29 27 27 24 28 31 32 30 30 29 26 25 24 22 18 20 22 24 28 29 27 28 27 25 23 21 22 22 24 23 20 19 20 18 18 21 24 23 20 20 19 18 16
37 33 32 33 30 29 30 30 29 30 31 27 28 25 23 21 22 22 23 26 29 29 28 28 27 25 22 22 23 23 21 18 20 19 19 20 21 22 22 21 20 20 18
42 39 36 36 35 32 27 25 27 28 32 32 28 28 26 24 23 22 21 23 27 30 31 31 29 29 28 24 24 24 25 22 21 21 20 20 22 23 24 24 24 22 22
44 41 39 35 35 32 26 21 22 25 28 31 30 30 29 27 25 24 25 26 27 29 32 35 35 32 30 27 24 24 25 27 27 25 22 23 27 29 30 27 27 22 21
28 39 38 35 35 34 29 24 23 22 22 23 27 28 27 25 25 25 26 29 32 34 35 35 35 34 33 29 27 24 25 27 30 31 29 30 31 31 30 28 27 28 28
37 42 42 40 39 40 32 27 31 26 24 29 28 28 31 30 30 32 33 31 33 36 35 36 36 36 34 32 31 29 28 28 30 31 32 32 32 33 32 31 31 30 29
28 42 37 38 33 7 13 23 20 21 18 22 24 26 29 28 27 30 33 34 33 36 41 38 38 36 34 33 32 34 35 35 34 35 34 32 30 27 28 32 30 27 30
17 17 37 36 16 21 29 31 26 26 26 23 26 29 27 31 34 35 34 37 46 41 20 30 38 39 39 36 35 35 34 35 35 35 33 31 29 31 31 27 34 34 36
14 21 19 18 19 28 29 26 20 18 19 22 26 23 22 18 25 24 16 26 40 43 41 41 42 42 38 38 39 37 37 36 33 35 35 32 32 33 33 33 29 31 37
17 13 17 15 16 17 15 17 17 17 15 15 14 17 18 19 22 24 25 25 30 32 31 32 37 34 35 38 39 39 34 29 31 33 34 31 35 36 35 36 38 40 35
25 24 16 19 17 14 14 16 18 18 18 17 17 17 17 19 20 22 23 22 24 25 28 29 29 28 28 29 28 31 32 31 38 36 29 35 37 39 35 33 34 35 35
18 31 25 22 20 20 18 19 21 22 23 22 21 21 22 22 16 17 16 18 20 25 27 28 29 26 26 26 23 24 25 28 26 32 38 34 34 37 29 32 31 33 30
33 34 37 30 30 24 26 30 26 27 28 27 26 26 23 20 19 21 22 22 21 21 18 18 23 21 18 17 18 18 21 22 23 29 34 28 27 32 30 27 28 29 34
32 33 43 38 40 40 33 32 34 33 35 32 30 24 22 25 24 25 26 28 26 23 22 22 20 17 19 21 22 24 19 21 24 25 30 28 31 29 27 24 26 29 36
26 32 39 45 47 53 50 51 42 38 38 35 32 29 25 23 24 26 27 29 28 26 25 24 23 23 22 21 21 23 24 25 24 26 29 30 32 29 26 25 29 32 38
28 30 34 37 39 45 41 40 39 34 34 31 24 25 26 27 25 23 22 25 28 26 27 25 25 24 25 23 22 24 26 25 27 27 27 31 31 29 29 28 32 31 37
36 32 31 35 39 35 39 38 39 34 31 30 27 23 24 27 30 31 29 30 31 30 30 26 22 24 27 27 26 25 25 27 29 30 31 32 32 32 33 35 36 34 36
24 30 29 28 32 28 32 31 20 27 28 26 23 25 26 29 25 23 23 26 31 31 29 25 21 22 23 27 29 29 30 32 33 35 35 35 35 37 36 39 37 38 36
23 22 22 22 26 26 29 28 32 21 16 20 21 21 23 23 25 27 21 23 26 28 29 25 24 21 22 24 29 29 31 29 29 32 34 34 36 37 39 41 39 42 41
18 17 13 20 21 25 30 30 28 25 26 20 21 22 23 25 25 27 23 20 21 26 28 31 29 25 23 25 28 30 32 33 31 30 32 34 34 36 39 41 44 41 42
11 11 6 3 4 7 14 23 17 23 19 18 20 23 23 23 29 30 25 23 23 25 25 28 28 28 27 28 28 28 31 32 30 30 32 33 33 34 37 43 45 46 44
15 16 12 13 12 10 10 12 16 18 18 19 24 26 26 26 25 25 25 25 25 28 30 30 30 31 28 27 27 26 27 29 30 29 31 32 33 33 35 40 46 51 52
15 16 17 17 19 19 18 17 17 21 23 22 21 25 26 27 29 30 28 24 28 27 24 28 29 28 26 25 25 25 25 27 29 30 30 33 33 33 33 37 42 45 49
19 20 17 18 23 20 21 21 19 19 22 23 27 30 27 26 28 29 31 31 33 32 27 24 26 26 26 28 30 26 23 23 27 29 30 33 34 33 33 34 38 42 45
20 22 24 13 7 16 18 18 22 28 30 30 29 29 30 31 32 33 31 28 24 25 31 27 23 24 27 26 23 22 21 21 23 27 29 32 34 36 37 36 35 38 41
Wind_Direction
216 211 218 224 223 225 229 236 235 233 232 231 235 226 217 216 220 229 230 232 232 231 230 232 234 237 237 234 235 248 251 249 243 224 228 238 233 227 226 229 232 242 253
219 216 216 219 226 227 227 231 234 234 228 235 236 228 228 228 227 234 232 229 232 231 228 233 235 238 237 236 238 246 249 250 242 236 228 226 227 222 228 236 239 243 246
220 222 226 228 228 229 233 233 232 229 223 226 230 233 235 235 234 241 235 232 233 234 234 232 235 238 243 243 245 243 243 246 238 236 237 226 219 215 219 228 239 244 245
226 228 229 233 232 232 231 226 223 225 222 223 228 236 239 243 242 247 247 242 240 241 242 243 243 245 247 249 250 247 243 242 243 242 244 232 219 218 222 229 232 240 242
237 232 233 233 236 232 219 217 223 225 224 225 227 233 240 244 247 250 252 253 252 248 246 247 248 249 251 250 247 244 239 236 236 241 238 229 219 219 225 229 233 248 253
240 243 233 228 226 218 211 216 216 220 227 230 232 236 240 242 248 253 255 254 254 252 251 250 250 251 251 251 249 246 245 237 234 234 238 242 237 234 231 232 235 235 236
257 243 229 219 224 223 217 223 232 225 238 242 238 238 239 242 243 244 245 249 261 261 256 255 253 251 250 249 248 245 246 245 241 240 238 238 244 246 245 236 237 238 249
249 229 223 218 225 307 270 235 225 232 231 242 245 244 242 246 253 267 255 256 252 279 265 259 260 254 248 246 246 245 245 243 242 240 233 239 243 246 253 251 248 252 246
275 259 231 251 230 217 240 242 248 245 251 244 249 250 252 254 277 261 253 239 266 285 296 247 251 254 256 255 252 247 250 251 249 244 237 233 232 236 243 245 239 237 239
278 261 252 257 257 254 264 251 230 239 242 247 250 254 253 242 254 278 274 258 256 254 245 246 263 265 265 264 262 261 259 258 258 249 239 228 225 229 235 244 250 247 242
258 261 250 259 251 244 241 246 245 237 225 217 221 230 239 253 268 271 267 270 273 270 266 257 257 263 269 268 267 265 266 270 272 267 248 233 230 228 231 238 245 249 247
261 264 256 253 242 229 231 237 234 235 232 236 239 242 251 263 270 269 267 275 276 268 268 270 270 267 265 268 267 265 262 257 259 260 238 234 234 229 234 247 251 250 245
250 265 253 253 238 229 230 237 245 245 247 248 254 265 262 258 266 278 287 303 294 286 278 269 270 271 270 270 266 250 250 257 262 251 232 232 235 231 245 256 250 244 239
265 273 254 260 258 241 236 238 240 253 253 256 260 262 262 261 269 278 288 299 299 302 295 290 281 274 262 267 264 252 250 254 259 253 234 241 243 238 254 249 237 234 228
265 268 256 250 249 249 246 255 257 256 259 258 263 264 263 269 271 272 280 286 292 289 290 284 280 276 266 259 257 255 242 241 239 242 241 247 248 248 251 236 232 229 225
293 279 269 266 251 245 255 264 251 252 258 259 259 264 265 271 277 277 276 279 277 277 280 283 278 277 263 257 250 252 256 248 241 238 242 246 248 250 241 231 228 224 224
290 283 274 267 271 270 262 248 248 249 248 251 243 251 263 272 275 276 275 272 265 262 269 275 276 274 275 258 256 254 254 254 246 247 249 250 246 240 238 229 217 228 227
278 275 275 274 263 263 260 271 257 245 244 242 248 253 265 275 280 280 282 281 269 263 268 269 276 280 273 260 259 253 250 247 245 249 249 250 245 238 233 224 224 231 227
296 280 281 280 280 280 282 269 283 247 241 249 252 266 276 286 284 285 279 280 272 266 260 263 276 272 274 265 264 262 256 253 253 249 252 253 245 238 231 228 228 226 222
307 294 276 286 278 282 266 254 254 277 258 252 260 276 280 284 286 287 289 286 281 267 259 265 269 270 272 270 264 261 263 261 260 256 255 250 246 238 230 228 227 223 223
315 314 289 283 280 280 267 225 242 255 266 265 262 263 281 290 294 293 288 284 282 265 267 271 271 270 272 274 264 262 261 260 258 258 256 253 246 238 231 231 230 226 225
334 334 286 245 271 259 232 216 218 244 245 253 257 273 285 285 289 287 293 286 284 279 275 273 270 263 272 274 274 265 260 262 259 256 254 251 245 239 234 231 230 224 223
319 316 286 263 275 265 267 257 243 244 253 261 272 283 287 287 282 285 289 293 292 284 280 273 277 272 269 277 273 264 255 260 264 255 255 252 249 243 237 233 231 231 231
338 298 281 268 265 264 271 267 261 258 263 268 273 279 283 282 286 291 288 282 283 289 284 273 272 274 268 272 269 263 259 256 258 258 255 255 254 250 244 238 235 232 233
3 358 343 277 259 263 260 266 267 269 269 266 274 284 279 282 288 288 286 288 281 279 284 276 274 271 274 274 271 265 263 257 248 253 252 251 252 252 248 244 239 235 234
21 24 18 8 285 255 261 266 265 265 266 270 273 272 277 283 283 284 286 289 287 279 276 270 268 266 271 281 280 273 267 258 249 245 251 251 250 249 247 246 244 240 240